Theta_e
316 326 320 324 327 324 324 323 325 335 336 333 336 340 341 340 341 342 339 340 338 339 343 322 318 316 315 315 315 315 315 316 317 321 326 327 326 323 322 321 319 317 321 321 321 320 318 322 327
324 324 323 325 324 324 324 324 325 330 334 334 335 339 340 342 338 337 337 339 339 341 344 335 317 316 314 314 314 314 314 313 314 314 315 317 318 318 316 313 311 311 322 327 327 325 320 320 321
327 320 324 323 324 324 324 324 328 328 334 335 337 337 337 342 340 335 338 338 340 343 344 340 318 316 314 313 313 314 313 312 312 312 312 312 311 312 311 311 312 316 324 328 328 328 328 328 329
322 321 323 324 324 323 324 328 327 333 335 336 336 338 335 337 339 336 338 337 340 341 342 340 320 317 314 312 313 314 313 312 312 311 311 311 311 311 312 314 316 323 329 330 330 329 329 330 331
322 322 321 322 322 323 324 324 326 331 333 335 338 339 337 337 339 338 338 336 338 339 340 342 322 317 315 312 312 314 313 313 312 312 312 312 312 313 314 316 318 323 331 332 334 332 332 333 334
324 324 323 321 322 322 323 324 326 328 331 334 337 338 338 338 339 338 338 338 336 339 340 339 326 318 315 312 312 314 314 313 312 312 312 312 313 314 315 317 319 323 331 334 334 334 335 335 334
326 322 323 322 322 321 322 324 325 327 331 335 336 338 338 337 337 338 338 339 339 339 341 341 342 329 316 314 312 313 315 314 313 312 312 313 314 315 316 317 319 322 329 332 333 334 335 334 331
326 325 323 321 321 323 323 323 324 325 330 332 333 338 338 337 341 340 339 339 340 341 340 342 343 341 339 333 315 313 315 315 314 313 313 313 314 316 318 318 320 322 326 329 331 333 333 334 333
326 326 326 324 321 321 321 323 325 328 331 331 332 334 332 336 341 340 340 339 338 338 341 341 340 341 340 336 335 321 321 318 317 318 316 321 330 332 331 330 331 322 324 326 330 332 333 332 331
329 329 328 325 323 322 321 323 324 329 330 332 331 332 332 333 338 340 340 338 338 338 339 341 342 340 341 339 338 341 337 337 336 333 334 332 331 331 332 332 330 327 324 326 331 333 334 334 338
330 331 328 327 325 322 322 323 324 327 331 332 333 333 333 332 333 334 333 335 337 338 339 341 342 341 341 340 339 339 339 339 339 337 334 334 331 331 333 333 335 334 331 334 333 336 338 338 338
329 329 330 329 327 325 324 324 324 323 326 329 330 332 331 332 333 333 333 333 332 333 335 337 344 343 340 340 340 339 339 339 340 340 338 336 336 334 335 333 334 335 333 334 334 336 338 339 338
325 326 327 328 328 328 327 327 327 326 326 326 328 329 331 332 332 332 331 331 331 331 332 335 341 347 343 341 340 340 340 339 340 340 341 340 337 336 335 333 332 333 333 333 334 335 338 338 338
321 323 325 325 327 328 328 329 330 330 328 329 330 331 331 330 331 330 330 330 330 331 333 336 338 341 344 341 343 342 342 340 340 340 340 342 339 337 335 334 333 332 332 332 333 334 336 337 339
318 321 323 325 326 326 329 331 331 330 330 332 331 330 330 330 329 330 329 329 331 332 333 333 334 335 337 340 342 343 341 342 340 340 340 341 342 337 336 335 334 332 331 332 333 334 335 336 339
316 318 321 322 324 326 326 331 329 329 330 331 330 330 329 330 330 329 329 330 331 332 331 332 332 331 332 333 338 341 340 340 340 340 341 342 343 341 339 337 335 334 332 333 332 332 332 331 339
317 318 320 321 323 324 327 329 329 329 329 330 331 330 329 330 330 329 330 329 330 330 331 331 333 334 334 333 337 339 341 341 340 340 341 342 343 342 340 340 338 337 334 333 332 331 330 333 339
316 317 318 320 321 322 323 327 327 327 328 329 329 329 330 330 330 329 329 329 328 329 329 331 335 334 336 334 339 339 341 342 341 341 342 343 343 342 342 341 340 338 336 333 332 330 331 339 337
314 317 318 319 320 323 323 325 325 326 326 328 328 329 330 330 329 327 327 327 327 328 331 334 334 337 337 337 339 341 342 342 342 343 343 344 344 343 342 342 341 339 336 334 333 335 336 337 338
312 315 318 318 319 320 323 324 324 325 326 327 328 328 328 329 329 329 327 327 327 328 329 332 334 336 338 337 340 341 343 344 344 344 344 345 344 344 343 342 341 339 338 336 337 339 338 338 337
312 314 317 318 319 320 321 323 324 324 325 326 326 326 326 326 326 326 326 325 326 327 328 330 332 335 337 338 342 344 345 344 344 344 345 345 345 345 343 342 342 342 339 339 340 340 338 337 336
310 311 314 317 319 322 321 324 324 323 324 325 325 325 325 325 325 325 325 326 325 325 325 326 330 332 337 341 341 343 343 343 343 345 345 345 345 344 343 343 343 341 340 340 339 338 337 337 335
309 310 313 315 318 320 321 323 322 322 323 324 324 324 324 323 323 323 323 323 322 322 323 324 328 335 341 343 341 343 342 344 346 345 347 346 346 345 345 345 344 343 340 339 337 337 336 335 334
310 310 313 316 317 320 319 321 321 321 322 322 322 322 321 321 321 322 322 321 321 321 322 324 335 342 345 344 343 344 344 345 346 347 347 347 346 346 345 343 342 341 339 339 338 337 336 334 333
311 311 318 320 320 320 318 319 320 321 320 320 321 319 320 321 322 323 323 324 324 324 323 329 340 346 346 345 346 347 348 348 349 348 346 344 343 342 342 342 341 340 339 338 336 336 334 334 333
311 312 314 317 316 317 316 318 319 319 320 320 319 319 320 324 325 327 329 331 330 325 328 334 342 347 347 347 347 348 348 347 346 344 343 341 338 338 342 341 341 340 339 337 335 334 333 333 333
309 310 311 313 314 315 316 317 317 318 318 319 319 319 322 326 331 334 337 337 333 327 333 340 345 347 347 347 346 346 345 344 343 343 341 339 339 340 341 340 339 338 336 335 334 332 333 332 333
309 310 310 312 314 315 316 317 318 318 318 318 318 319 321 324 328 335 340 338 334 333 340 344 347 347 347 346 345 345 344 343 342 341 339 339 339 337 339 338 337 335 334 333 333 332 332 332 332
309 310 311 311 311 313 314 316 317 320 320 320 320 320 320 321 325 334 340 337 339 340 343 346 347 346 346 345 343 342 340 340 340 340 339 339 338 337 336 335 334 333 332 332 332 333 332 332 332
311 313 313 310 313 312 315 319 318 320 320 319 319 320 320 320 321 333 340 337 341 343 345 346 345 345 344 341 340 340 339 339 339 338 338 337 336 335 334 332 332 331 332 333 333 333 332 332 332
Wind_Speed
13 4 4 6 7 7 13 10 13 6 9 5 2 5 14 5 14 1 6 18 17 27 27 33 30 28 28 28 27 26 26 25 24 24 23 22 21 20 18 16 14 12 11 10 9 9 8 5 3
9 7 7 4 8 11 12 14 10 9 2 4 6 11 9 9 5 1 10 16 19 24 27 30 32 29 28 28 27 27 27 26 25 24 23 22 21 19 18 17 15 13 12 11 9 8 7 6 4
9 8 6 6 13 15 11 9 11 4 6 8 4 7 9 11 9 2 9 19 20 22 23 27 34 32 31 31 29 27 27 26 25 24 23 22 21 19 18 16 15 14 13 12 11 9 7 7 5
8 7 5 10 17 16 17 2 4 4 2 4 9 6 5 2 5 5 18 19 19 21 22 26 32 33 33 32 31 28 27 26 25 24 23 22 21 20 19 17 16 15 15 14 12 10 8 7 5
8 5 10 15 22 19 12 15 10 11 7 6 7 13 7 6 6 12 22 18 18 20 21 22 32 32 33 33 31 28 27 26 25 24 24 22 21 19 18 17 17 16 16 14 13 10 8 7 7
6 6 13 17 20 17 18 13 13 14 12 9 8 11 9 4 11 15 21 18 16 18 19 20 30 33 32 31 30 29 29 28 27 26 25 23 22 20 19 18 16 15 15 14 12 10 9 8 7
14 10 17 20 18 15 16 13 15 15 11 9 5 11 4 8 12 15 18 15 15 15 16 17 19 29 32 30 30 30 31 29 28 28 26 25 24 22 21 20 17 16 16 14 13 11 10 9 8
10 10 19 18 16 20 10 12 17 15 15 3 4 8 9 7 6 11 14 15 13 14 15 15 16 19 22 24 31 31 30 29 29 29 28 26 25 24 23 21 19 17 16 15 14 12 11 10 8
13 13 17 21 17 15 10 16 13 5 9 6 3 2 5 4 8 11 12 15 15 15 15 15 18 20 21 22 22 32 32 31 31 30 29 27 22 22 22 22 21 20 18 17 15 14 12 11 9
16 16 26 17 13 12 18 16 14 7 13 12 8 9 6 7 7 10 12 15 18 17 16 16 18 19 19 20 21 20 24 25 26 26 24 27 25 24 24 23 25 23 20 16 15 14 13 11 10
23 26 21 21 13 14 19 19 17 15 17 14 11 12 5 2 3 5 9 10 11 14 15 16 17 18 20 19 19 21 22 24 26 27 28 26 25 24 24 23 22 21 20 16 15 15 14 13 12
26 26 27 24 16 14 22 20 24 23 21 19 6 10 11 12 9 9 10 9 10 10 12 14 17 18 20 20 21 22 24 25 26 26 29 28 27 26 25 25 22 22 21 20 18 17 16 14 13
29 30 23 23 21 19 17 25 23 24 23 20 19 18 18 17 13 12 12 13 13 15 11 11 16 16 16 19 22 26 27 25 25 24 25 29 29 28 25 25 24 23 22 20 19 18 16 15 15
27 27 30 25 20 21 24 26 22 22 23 22 21 22 21 18 16 16 15 16 17 16 14 7 10 12 15 18 21 23 22 23 22 23 25 29 27 26 25 25 25 24 23 21 19 18 17 16 15
27 28 25 24 29 28 15 27 37 27 26 23 21 19 20 19 19 17 19 18 16 15 14 13 11 13 16 18 20 21 22 19 21 23 24 26 27 26 25 24 25 24 23 21 19 18 16 15 16
20 25 25 32 24 28 22 30 34 26 25 29 26 22 21 21 18 18 16 14 12 11 14 15 17 16 16 18 19 19 19 19 19 21 22 25 24 24 23 23 24 23 22 21 20 18 18 18 15
23 25 31 33 32 25 25 35 36 27 21 22 21 21 21 19 17 18 16 16 15 13 15 19 17 18 17 16 17 18 17 17 18 18 20 21 22 22 23 21 20 20 21 21 19 18 18 17 14
27 30 30 30 27 26 26 34 26 22 19 25 23 22 22 20 16 17 16 16 18 17 22 22 19 17 16 13 13 14 15 15 16 18 19 18 19 20 21 18 17 18 18 18 17 18 17 13 11
28 31 31 28 26 26 32 33 31 28 25 21 19 18 18 18 18 21 22 20 21 23 20 19 17 16 13 12 11 13 15 15 16 17 17 17 17 18 20 17 17 17 18 19 17 15 15 12 7
29 31 32 21 21 25 26 32 29 30 31 28 27 24 23 22 20 18 23 20 20 19 18 19 16 14 13 13 11 10 13 14 15 15 16 16 17 17 17 17 17 17 14 15 15 15 11 10 10
26 27 28 28 19 17 22 30 31 29 28 25 21 22 22 21 22 21 18 22 22 22 21 17 16 15 14 15 13 11 12 10 15 15 15 16 16 16 16 17 16 15 14 15 15 14 14 9 9
27 28 26 27 18 18 21 22 26 26 26 27 25 22 22 20 20 18 20 21 26 26 24 22 19 18 14 17 16 17 17 15 14 16 15 16 16 16 16 16 16 15 14 12 12 12 11 11 11
25 25 23 27 25 20 22 14 17 16 19 19 18 19 19 19 20 23 22 25 28 26 22 21 20 16 14 16 16 18 16 12 14 16 18 17 16 15 16 15 15 14 12 11 12 11 10 11 10
17 23 18 19 21 21 29 21 14 18 21 18 18 17 16 17 12 15 15 16 19 20 19 18 15 12 13 15 17 17 15 15 17 18 19 18 16 15 15 14 13 13 11 10 11 10 10 10 10
18 16 11 14 16 19 28 24 18 7 8 11 12 3 6 8 9 10 10 9 10 14 19 17 14 13 14 16 17 16 17 17 19 21 18 18 16 14 14 14 13 12 10 9 9 9 8 9 10
20 18 13 16 17 16 19 14 17 19 24 14 8 1 1 6 8 9 10 11 11 11 15 17 16 16 17 18 18 18 19 18 18 16 17 15 15 13 14 13 11 10 9 7 7 8 8 9 9
18 19 20 25 19 14 18 20 21 8 10 10 8 3 6 9 10 11 12 10 9 11 14 16 18 19 20 21 20 20 18 18 17 16 16 15 13 13 13 11 10 8 8 7 7 7 9 9 9
20 14 17 8 18 17 14 19 12 22 23 19 13 4 7 11 13 13 10 9 5 10 13 16 19 21 21 21 21 20 19 18 19 17 15 14 12 11 11 10 9 9 8 8 8 7 8 9 9
13 13 11 15 15 11 13 15 15 13 12 12 11 7 10 13 14 13 10 7 4 10 15 18 20 22 22 21 20 21 21 20 18 16 15 13 11 10 10 11 11 10 9 9 9 7 7 8 8
7 10 13 10 17 14 10 5 5 15 15 9 7 8 12 14 14 12 10 5 4 12 17 19 20 21 21 21 22 21 21 19 17 15 13 11 10 11 11 11 11 11 11 10 8 8 7 7 7
Wind_Direction
216 228 195 223 235 234 245 231 244 216 204 188 246 191 197 275 176 205 106 156 156 166 174 180 187 188 188 187 187 186 187 188 188 189 192 193 193 193 193 192 189 184 176 171 166 165 164 161 156
187 192 207 246 250 222 233 216 212 217 221 252 251 228 238 224 223 63 136 155 159 167 173 178 188 190 193 195 192 190 189 189 190 191 194 197 197 196 194 191 186 180 174 168 166 167 162 160 162
179 215 242 226 236 243 244 170 222 191 277 257 244 223 208 229 213 176 121 154 159 170 177 182 188 192 195 199 199 195 193 192 192 192 195 195 195 195 191 188 184 177 177 173 175 171 169 166 159
185 197 240 243 237 229 247 93 133 233 248 238 245 208 195 212 192 182 153 158 164 173 180 194 192 195 198 200 202 200 200 197 196 197 197 196 195 195 191 188 183 181 181 180 178 179 180 179 180
211 252 243 233 244 246 239 255 278 276 279 248 231 227 227 171 161 155 157 164 170 178 185 194 198 199 202 202 204 203 205 203 203 202 203 201 199 198 198 192 188 186 187 185 183 185 188 190 197
221 260 240 239 242 242 245 251 260 259 264 255 235 240 221 144 165 163 163 171 176 184 186 190 203 203 208 206 209 208 208 208 207 208 208 206 204 202 204 200 196 194 195 192 188 193 198 203 213
237 233 248 254 261 253 241 237 252 255 259 251 245 224 169 179 150 161 167 175 184 187 189 193 200 205 208 215 216 216 215 213 212 212 212 210 210 207 206 205 202 201 202 199 195 199 208 211 216
229 239 250 250 260 257 261 255 244 250 246 5 242 216 167 112 158 161 170 182 190 192 196 197 199 208 208 214 222 224 224 223 221 218 217 216 215 213 211 209 209 208 207 206 202 205 211 217 224
227 240 246 239 226 246 262 254 245 264 252 213 335 78 61 161 177 173 182 193 202 206 207 206 209 207 210 214 223 228 227 228 228 224 221 216 211 214 213 212 216 213 211 211 208 208 211 219 228
217 227 242 249 252 230 239 242 237 236 224 233 216 157 90 104 168 191 194 200 211 212 215 217 217 214 213 215 218 225 225 225 223 221 215 212 211 214 213 216 215 221 218 218 216 217 218 224 235
223 241 243 239 242 249 250 246 238 236 239 230 223 187 238 306 215 237 218 222 230 225 229 228 225 216 214 220 220 224 224 225 225 221 215 216 214 215 215 216 221 219 222 222 226 227 223 228 237
238 247 246 251 229 242 249 258 253 247 245 249 228 233 270 272 271 265 271 254 235 241 249 242 227 223 226 223 227 229 227 225 224 222 215 212 212 214 214 216 217 216 217 220 222 225 228 229 237
236 241 250 245 248 244 257 252 254 253 247 252 253 261 263 272 266 265 275 273 269 262 274 250 221 221 232 235 234 233 229 230 227 221 219 214 215 215 215 218 218 219 219 220 223 227 227 230 238
240 245 246 251 248 241 247 254 248 244 250 254 253 254 259 260 265 270 261 264 267 266 275 231 223 230 239 243 241 238 239 236 231 227 224 218 216 216 216 219 220 223 223 224 224 227 230 233 238
256 259 261 241 234 244 246 260 246 245 254 251 248 248 254 257 259 259 257 255 254 262 258 263 268 263 251 252 252 245 236 235 230 229 226 219 214 215 215 221 222 226 226 225 224 226 229 237 239
257 243 245 240 231 233 223 256 254 225 233 246 245 247 248 252 258 259 250 244 241 244 258 275 282 273 264 265 255 247 240 230 228 227 223 216 212 211 213 222 224 223 222 221 223 224 231 241 239
241 239 232 240 228 224 213 242 250 254 236 232 247 247 247 251 248 245 248 254 247 240 257 276 276 268 266 264 249 242 235 226 222 220 216 210 205 206 210 217 220 215 217 220 222 226 236 243 243
231 230 237 243 226 228 222 243 251 243 237 243 242 248 252 255 253 253 258 261 260 257 266 269 263 260 255 251 236 229 227 222 215 211 209 201 197 200 205 212 208 205 208 214 218 229 234 237 246
260 265 250 245 248 228 222 239 244 245 248 244 244 241 241 248 257 267 265 263 259 262 265 259 261 247 241 229 218 219 216 211 205 204 201 193 191 195 198 202 198 198 202 204 213 220 221 234 231
245 252 256 261 268 242 234 237 243 246 246 248 250 251 257 261 261 262 262 261 263 268 262 262 260 255 245 236 221 214 208 205 198 195 192 187 186 188 191 191 190 193 197 200 203 205 213 221 217
253 250 247 251 265 242 248 247 245 240 243 251 257 257 261 266 269 269 272 270 269 260 258 264 263 255 244 226 207 194 177 176 189 185 179 181 179 182 183 184 183 183 187 193 201 204 213 226 222
248 245 244 252 236 226 216 248 235 232 242 244 246 251 254 257 259 263 265 266 263 264 264 261 256 257 241 213 203 191 185 184 189 179 169 167 171 174 178 179 178 177 190 190 200 209 221 230 222
254 240 241 230 245 249 244 239 251 252 244 241 242 252 253 256 261 264 267 264 265 262 259 254 252 243 224 207 200 191 205 178 165 160 153 155 161 168 175 174 177 180 194 197 196 205 217 224 229
258 225 238 243 230 233 236 246 248 245 245 245 238 249 257 258 262 267 264 267 259 253 243 237 229 221 206 196 189 190 181 164 156 152 152 154 157 165 170 171 173 184 196 198 204 212 211 222 228
267 210 205 216 217 221 223 231 238 210 7 259 244 247 248 259 276 279 279 273 262 238 229 215 208 198 184 176 171 169 164 157 152 151 153 152 157 164 167 171 178 189 194 202 205 208 211 208 216
206 228 226 217 210 217 229 223 226 239 250 263 267 144 251 342 326 308 300 290 272 228 211 203 190 175 170 160 152 152 149 148 147 151 150 157 159 165 168 177 185 183 192 193 190 200 211 212 209
242 234 236 246 263 247 209 214 257 221 211 207 168 153 21 1 357 337 323 302 270 223 195 187 172 163 160 148 145 143 143 145 144 143 149 149 151 156 162 172 179 182 184 180 187 209 210 213 211
256 256 232 225 232 223 219 210 223 210 224 228 236 77 12 2 0 356 341 328 270 188 172 169 162 158 150 145 144 142 140 139 141 142 144 148 149 156 164 171 173 171 170 183 187 197 205 208 208
221 237 250 253 227 242 225 212 203 146 120 112 102 58 14 13 356 1 4 345 252 165 159 157 154 148 146 144 142 141 139 138 140 141 143 149 151 161 166 167 162 165 172 178 185 199 180 194 195
260 280 262 234 224 247 293 98 137 122 126 114 71 23 8 359 354 6 23 7 203 159 152 152 149 147 144 142 142 141 138 139 139 142 148 150 155 161 161 159 164 168 173 180 186 198 188 197 195